CW6129 Weather Reports


Display with metric or nautical units.
time (UTC)temp
F
wind
direction
speed
MPH
gust
MPH
rain 1hr
in
rain 24hr
in
rain mn
in
humidity
%
barometer
mb
20260506073404 53 132 0.0 0.0 0.00 0.02 0.00 93 1019.1
20260506072905 53 132 0.0 0.0 0.00 0.02 0.00 93 1019.1
20260506071905 53 132 0.0 0.0 0.00 0.02 0.00 93 1018.9
20260506071404 53 132 0.0 0.0 0.00 0.02 0.00 93 1018.8
20260506070905 53 132 0.0 0.0 0.00 0.02 0.00 93 1018.8
20260506070405 53 132 0.0 0.0 0.00 0.02 0.00 93 1018.9
20260506062405 53 132 0.0 0.0 0.00 0.04 0.03 93 1018.6
20260506061905 53 132 0.0 0.0 0.00 0.04 0.03 92 1018.5
20260506061404 53 132 0.0 0.0 0.00 0.04 0.03 92 1018.5
20260506060405 53 132 0.0 0.0 0.00 0.04 0.03 92 1018.4
20260506051405 53 132 0.0 0.0 0.00 0.08 0.03 91 1017.9
20260506050905 53 132 0.0 0.0 0.00 0.09 0.03 91 1018.0
20260506050405 53 132 0.0 0.0 0.00 0.09 0.03 91 1018.1
20260506044905 54 132 0.0 0.0 0.00 0.10 0.03 91 1017.9
20260506044405 54 132 0.0 0.0 0.00 0.10 0.03 91 1017.9
20260506043904 54 132 0.0 0.0 0.00 0.10 0.03 90 1017.8
20260506043405 54 132 0.0 0.0 0.00 0.10 0.03 90 1017.8
20260506042905 54 132 0.0 0.0 0.00 0.10 0.03 90 1017.8
20260506042405 54 132 0.0 0.0 0.00 0.10 0.03 90 1017.7
20260506041905 54 132 0.0 0.0 0.00 0.10 0.03 91 1017.7
20260506041405 54 132 0.0 0.0 0.00 0.11 0.03 90 1017.6
20260506040904 54 132 0.0 0.0 0.00 0.11 0.03 90 1017.4
20260506040405 54 132 0.0 0.0 0.00 0.12 0.03 89 1017.4
20260506035905 54 132 0.0 0.0 0.00 0.13 0.03 89 1017.3
20260506035405 54 132 0.0 0.0 0.00 0.14 0.03 89 1017.2
20260506034905 54 132 0.0 0.0 0.00 0.15 0.03 89 1017.2
20260506034405 54 132 0.0 0.0 0.00 0.16 0.03 89 1017.3
20260506033905 54 132 0.0 0.0 0.00 0.17 0.03 89 1017.4
20260506033405 54 132 0.0 0.0 0.00 0.17 0.03 89 1017.3
20260506032905 54 132 0.0 0.0 0.00 0.18 0.03 89 1017.2
20260506032405 54 132 0.0 0.0 0.00 0.19 0.03 88 1017.0
20260506031405 55 132 0.0 0.0 0.00 0.20 0.03 88 1016.9
20260506030905 55 132 0.0 0.0 0.00 0.21 0.03 88 1016.9
20260506025405 55 132 0.0 0.0 0.00 0.26 0.03 87 1016.4
20260506024905 55 132 0.0 0.0 0.00 0.27 0.03 88 1016.5
20260506024405 55 132 0.0 0.0 0.00 0.29 0.03 87 1016.5
20260506023905 55 132 0.0 0.0 0.00 0.30 0.03 86 1016.5
20260506022905 55 132 0.0 0.0 0.00 0.32 0.03 86 1016.4
20260506022405 55 157 0.0 0.0 0.00 0.32 0.03 86 1016.3
20260506021905 55 157 0.0 0.0 0.00 0.33 0.03 86 1016.3
20260506021405 55 157 0.0 0.0 0.00 0.33 0.03 86 1016.3
20260506020905 55 157 0.0 0.0 0.00 0.33 0.03 85 1016.1
20260506020405 55 157 0.0 0.0 0.00 0.34 0.03 85 1016.0
20260506015905 55 159 0.0 0.0 0.00 0.34 0.03 85 1016.2
20260506015405 55 169 0.0 0.0 0.00 0.34 0.03 84 1016.2
20260506014904 55 197 0.0 0.0 0.00 0.35 0.03 85 1016.3
20260506014405 55 165 0.0 0.0 0.00 0.36 0.03 85 1016.4
20260506013905 55 171 0.0 0.0 0.00 0.36 0.03 85 1016.4
20260506013406 55 171 0.0 0.0 0.00 0.37 0.03 84 1016.5
20260506012905 55 185 0.0 0.0 0.00 0.39 0.03 84 1016.5
20260506012405 55 159 0.0 0.0 0.00 0.40 0.03 83 1016.5
20260506011904 55 140 0.0 0.0 0.00 0.41 0.03 84 1016.6
20260506010905 55 97 0.0 0.0 0.00 0.41 0.03 84 1016.3
20260506010405 55 4 0.0 0.0 0.00 0.41 0.03 83 1016.2
20260506005905 56 352 0.0 0.0 0.00 0.41 0.03 85 1016.3
20260506005405 56 350 0.0 0.0 0.00 0.42 0.03 84 1016.2
20260506004905 56 56 0.0 0.0 0.00 0.42 0.03 85 1016.2
20260506004405 55 346 0.0 0.0 0.00 0.43 0.03 84 1016.1
20260506003905 56 355 0.0 0.0 0.00 0.44 0.03 84 1016.1
20260506003405 55 355 0.0 0.0 0.00 0.45 0.03 86 1016.0
20260506002405 55 86 0.0 0.0 0.00 0.47 0.03 85 1016.1
20260506001405 55 29 0.0 0.0 0.00 0.49 0.03 85 1016.1
20260506000905 55 148 0.0 0.0 0.00 0.50 0.03 85 1016.1
20260505235905 55 9 0.0 0.0 0.00 0.52 0.03 84 1016.1
20260505235405 56 319 0.0 0.0 0.00 0.53 0.03 84 1016.0
20260505234905 55 324 0.0 0.0 0.00 0.54 0.03 84 1016.0
20260505234405 55 322 0.0 0.0 0.00 0.56 0.03 84 1016.0
20260505233905 55 167 0.0 0.0 0.00 0.56 0.03 85 1016.0
20260505233405 55 210 0.0 0.0 0.00 0.57 0.03 84 1016.0
20260505232905 55 195 0.0 0.0 0.00 0.58 0.03 85 1016.0
20260505232404 55 182 0.0 0.0 0.00 0.59 0.03 85 1016.0
20260505231904 55 269 0.0 0.0 0.00 0.59 0.03 84 1016.1
20260505231405 55 269 0.0 0.0 0.00 0.59 0.03 84 1016.1
20260505230905 55 192 0.0 0.0 0.00 0.60 0.03 86 1016.1
20260505230405 55 192 0.0 0.0 0.00 0.61 0.03 86 1016.1
20260505225906 55 192 0.0 0.0 0.00 0.62 0.03 85 1016.1
20260505225406 55 171 0.0 0.0 0.00 0.62 0.03 85 1016.0
20260505224905 55 171 0.0 0.0 0.00 0.63 0.03 85 1016.0
20260505224405 55 157 0.0 0.0 0.00 0.64 0.03 85 1016.1
20260505223905 55 95 0.0 0.0 0.00 0.66 0.03 86 1016.0
20260505223405 55 78 0.0 0.0 0.00 0.66 0.03 86 1016.1
20260505222905 55 123 0.0 0.0 0.00 0.67 0.03 86 1016.1
20260505222406 55 115 0.0 0.0 0.00 0.67 0.03 86 1016.2
20260505221405 55 94 0.0 0.0 0.00 0.68 0.03 87 1016.2
20260505220905 55 195 0.0 0.0 0.00 0.68 0.03 86 1016.2
20260505220405 55 354 0.0 0.0 0.00 0.69 0.03 85 1016.3
20260505215905 55 58 0.0 0.0 0.00 0.69 0.03 86 1016.3
20260505215405 55 163 0.0 0.0 0.00 0.70 0.03 85 1016.3
20260505214905 55 161 0.0 0.0 0.00 0.70 0.03 85 1016.3
20260505214405 55 268 0.0 0.0 0.00 0.70 0.03 84 1016.3
20260505213905 55 337 0.0 0.0 0.00 0.70 0.03 84 1016.3
20260505213404 55 227 0.0 0.0 0.00 0.71 0.03 83 1016.3
20260505212905 55 212 0.0 0.0 0.00 0.71 0.03 83 1016.3
20260505212405 55 219 0.0 0.0 0.00 0.72 0.03 83 1016.3
20260505211905 55 219 0.0 0.0 0.00 0.73 0.03 84 1016.4
20260505211405 55 241 0.0 0.0 0.00 0.73 0.03 83 1016.4
20260505210905 55 336 0.0 0.0 0.00 0.73 0.03 84 1016.3
20260505205905 55 280 0.0 0.0 0.00 0.73 0.03 83 1016.3
20260505205405 55 299 0.0 0.0 0.00 0.73 0.03 84 1016.2
20260505204905 55 290 0.0 0.0 0.00 0.73 0.03 83 1016.3
20260505204405 55 310 0.0 0.0 0.00 0.73 0.03 83 1016.3
20260505203905 55 220 0.0 0.0 0.00 0.73 0.03 84 1016.2
20260505203405 55 257 0.0 0.0 0.00 0.73 0.03 83 1016.2
20260505202906 54 220 0.0 0.0 0.00 0.73 0.03 85 1016.2
20260505202405 54 10 0.0 2.0 0.00 0.73 0.03 85 1016.2
20260505201905 55 338 0.0 0.0 0.00 0.74 0.03 85 1016.3
20260505201405 54 196 0.0 0.0 0.00 0.74 0.03 84 1016.3
20260505200905 55 32 0.0 0.0 0.00 0.74 0.03 83 1016.2
20260505200405 55 13 0.0 3.0 0.00 0.74 0.03 82 1016.2
20260505195905 55 306 0.0 0.0 0.00 0.74 0.03 82 1016.2
20260505195405 55 208 0.0 0.0 0.00 0.74 0.03 82 1016.3
20260505194906 55 66 0.0 0.0 0.00 0.74 0.03 82 1016.4
20260505194405 55 9 0.0 0.0 0.00 0.74 0.03 83 1016.4
20260505193405 55 0 0.0 0.0 0.00 0.75 0.03 82 1016.4
20260505192906 55 356 0.0 0.0 0.00 0.77 0.03 81 1016.4
20260505192405 55 135 0.0 0.0 0.00 0.79 0.03 81 1016.4
20260505191905 55 231 0.0 0.0 0.00 0.80 0.03 80 1016.4
20260505191405 55 355 0.0 0.0 0.00 0.80 0.03 82 1016.3
20260505190905 55 349 0.0 0.0 0.00 0.81 0.03 81 1016.2
20260505190405 55 149 0.0 0.0 0.00 0.83 0.03 82 1016.2
20260505185906 55 237 0.0 0.0 0.00 0.85 0.03 82 1016.2
20260505185405 55 274 0.0 0.0 0.00 0.86 0.03 84 1016.3
20260505184905 56 0 0.0 2.0 0.00 0.86 0.03 81 1016.2
20260505184405 56 302 0.0 0.0 0.00 0.87 0.03 81 1016.2
20260505183905 55 113 0.0 0.0 0.00 0.87 0.03 82 1016.1
20260505183405 55 138 0.0 0.0 0.00 0.87 0.03 84 1016.1
20260505182905 55 173 0.0 0.0 0.00 0.88 0.03 82 1016.1
20260505182406 55 304 0.0 0.0 0.00 0.88 0.03 81 1016.0
20260505181905 55 221 0.0 0.0 0.00 0.88 0.03 81 1016.1
20260505180905 55 315 0.0 0.0 0.00 0.88 0.03 82 1016.0
20260505180405 55 256 0.0 0.0 0.00 0.88 0.03 84 1016.0
20260505175906 54 301 0.0 0.0 0.00 0.88 0.03 82 1016.0
20260505175405 54 221 0.0 0.0 0.00 0.88 0.03 83 1016.0
20260505174905 54 250 0.0 0.0 0.00 0.88 0.03 86 1015.9
20260505174406 54 309 0.0 0.0 0.00 0.88 0.03 86 1015.9
20260505173905 54 297 0.0 0.0 0.00 0.88 0.03 85 1015.9
20260505173406 54 313 0.0 0.0 0.00 0.88 0.03 86 1015.8
20260505172906 53 230 0.0 0.0 0.00 0.88 0.03 87 1015.7
20260505171905 53 224 0.0 2.0 0.00 0.89 0.03 91 1015.6
20260505171405 52 344 0.0 3.0 0.00 0.89 0.03 90 1015.7
20260505170905 52 251 0.0 0.0 0.00 0.89 0.03 91 1015.8
20260505170405 51 98 0.0 0.0 0.00 0.90 0.03 92 1015.8
20260505165906 51 322 0.0 0.0 0.00 0.91 0.03 92 1015.8
20260505165405 51 261 0.0 0.0 0.00 0.91 0.03 93 1015.8
20260505164905 51 248 0.0 0.0 0.00 0.91 0.03 92 1015.8
20260505164406 51 340 0.0 0.0 0.00 0.91 0.03 93 1015.7
20260505163905 50 256 0.0 0.0 0.00 0.92 0.03 93 1015.7
20260505163405 50 313 0.0 0.0 0.00 0.94 0.03 93 1015.7
20260505162906 50 312 0.0 0.0 0.00 0.95 0.03 93 1015.7
20260505161905 50 334 0.0 0.0 0.00 0.95 0.03 92 1015.7
20260505161405 50 317 0.0 0.0 0.00 0.95 0.03 93 1015.8
20260505160905 50 299 0.0 0.0 0.00 0.95 0.03 93 1015.6
20260505160406 50 341 0.0 0.0 0.00 0.95 0.03 93 1015.6
20260505152906 50 265 0.0 0.0 0.00 0.95 0.03 94 1015.6
20260505152405 50 247 0.0 0.0 0.00 0.95 0.03 95 1015.5
20260505151905 49 171 0.0 0.0 0.00 0.95 0.03 95 1015.5
20260505150906 49 29 0.0 0.0 0.00 0.95 0.03 95 1015.4
20260505140405 48 184 0.0 0.0 0.00 0.95 0.03 96 1015.0
20260505124905 48 188 0.0 0.0 0.00 0.95 0.03 96 1014.8
20260505124406 48 188 0.0 0.0 0.00 0.95 0.03 96 1014.8
20260505123905 48 188 0.0 0.0 0.00 0.95 0.03 95 1014.7
20260505123406 48 180 0.0 0.0 0.00 0.95 0.03 95 1014.7
20260505122406 48 180 0.0 0.0 0.00 0.95 0.03 95 1014.5
20260505121405 48 180 0.0 0.0 0.00 0.95 0.03 95 1014.6
20260505120905 48 180 0.0 0.0 0.00 0.95 0.03 95 1014.5
20260505120406 48 180 0.0 0.0 0.00 0.95 0.03 95 1014.6
20260505115905 48 180 0.0 0.0 0.00 0.95 0.03 95 1014.6
20260505115405 48 180 0.0 0.0 0.00 0.95 0.03 95 1014.7
20260505114905 48 180 0.0 0.0 0.00 0.95 0.03 95 1014.6
20260505114406 48 180 0.0 0.0 0.00 0.95 0.03 95 1014.7
20260505112906 48 184 0.0 0.0 0.00 0.95 0.03 95 1014.7
20260505112406 48 184 0.0 0.0 0.00 0.95 0.03 95 1014.7
20260505111405 48 184 0.0 0.0 0.00 0.95 0.03 95 1014.8
20260505110905 48 184 0.0 0.0 0.00 0.95 0.03 95 1014.8
20260505110406 48 180 0.0 0.0 0.00 0.95 0.03 95 1014.8
20260505101905 48 190 0.0 0.0 0.00 0.95 0.03 95 1014.9
20260505101406 48 196 0.0 0.0 0.00 0.95 0.03 95 1014.9
20260505100905 48 196 0.0 0.0 0.00 0.95 0.03 95 1014.9
20260505100406 48 202 0.0 0.0 0.00 0.95 0.03 95 1015.0
20260505095906 48 202 0.0 0.0 0.00 0.95 0.03 95 1014.8
20260505095405 48 202 0.0 0.0 0.00 0.95 0.03 95 1014.8
20260505094905 48 202 0.0 0.0 0.01 0.95 0.03 95 1015.1
20260505094406 48 202 0.0 0.0 0.01 0.95 0.03 95 1015.2
20260505093905 48 202 0.0 0.0 0.01 0.95 0.03 95 1015.2
20260505092906 48 202 0.0 0.0 0.02 0.95 0.03 96 1015.3
20260505092405 48 202 0.0 0.0 0.02 0.95 0.03 95 1015.4
20260505091905 48 202 0.0 0.0 0.02 0.95 0.03 96 1015.4
20260505091405 48 202 0.0 0.0 0.02 0.95 0.03 95 1015.4
20260505090905 48 202 0.0 0.0 0.02 0.95 0.03 95 1015.4
20260505090405 48 202 0.0 0.0 0.02 0.95 0.03 95 1015.4
20260505085905 48 202 0.0 0.0 0.02 0.95 0.03 95 1015.5
20260505085405 48 202 0.0 0.0 0.02 0.95 0.03 95 1015.4
20260505084905 48 202 0.0 0.0 0.01 0.94 0.02 96 1015.4
20260505084406 48 202 0.0 0.0 0.01 0.94 0.02 96 1015.4
20260505083906 48 202 0.0 0.0 0.01 0.94 0.02 95 1015.5
20260505083406 48 202 0.0 0.0 0.00 0.93 0.01 95 1015.6
20260505082906 48 202 0.0 0.0 0.00 0.93 0.01 95 1015.6
20260505082405 48 202 0.0 0.0 0.00 0.93 0.01 95 1015.8
20260505081905 48 202 0.0 0.0 0.00 0.93 0.01 95 1015.9
20260505081405 48 202 0.0 0.0 0.00 0.93 0.01 95 1015.8
20260505080906 48 202 0.0 0.0 0.00 0.93 0.01 95 1015.9
20260505080405 48 202 0.0 0.0 0.00 0.93 0.01 95 1015.9